Skip to main content Skip to accessibility
This website is not compatible with your web browser. You should install a newer browser. If you live in Jersey and need help upgrading call the States of Jersey web team on 440099.
Homegov.je

L'înformâtion et les sèrvices publyis pouor I'Île dé Jèrri

  • Choose the service you want to log in to:

  • gov.je

    Update your notification preferences

  • one.gov.je

    Access government and parish services

  • CAESAR

    Clear goods through customs or claim relief

  • Talentlink

    View or update your States of Jersey job application

Local METARs

METAR EGJJ 191220Z 26008KT 4500 BR SCT002 BKN003 16/15 Q1010

METAR EGJB 191220Z 27008KT 7000 FEW001 SCT002 BKN003 15/14 Q1010

METAR EGJA 191220Z 31006KT 4000 BR FEW002 15/14 Q1010

METAR LFRD 191230Z AUTO 30009KT 9000 FEW008 BKN013 BKN080 18/15 Q1010 TEMPO 4000 SHRA BKN020CB

METAR LFRC 191230Z AUTO 30007KT 5000 BR OVC003 16/16 Q1010 TEMPO 1500 BR BKN010 BKN020TCU

 

 

 

​Times are in Greenwich Mean Time (GMT) and not British Summer Time (BST). They will be one hour different during BST.

Back to top
rating button